レモン彗星

C/2018 U1 ( Lemmon )

English version
Home page
Updated on August 6, 2019

---------------------------------------------------------------------

・ プロフィール

発見日 2018年10月27日
発見光度 20.0等
発見者 R. A. Kowalski (Mount Lemmon Survey)

・ 写真集

・ 軌道要素

Epoch 2021 Nov. 2.0 TT = JDT 2459520.5
T 2021 Nov. 3.09019 TT                                  MPCW
q   4.9927669            (2000.0)            P               Q
z  -0.0002846      Peri.  180.46715     -0.25316085     -0.30188949
 +/-0.0000205      Node    75.48159     -0.88448675     +0.45710384
e   1.0014209      Incl.  108.29861     -0.39190913     -0.83661151
From 231 observations 2018 Oct. 27-2019 June 1, mean residual 0".4.

・ 星図

・ 光度変化

        m1 = 5.0 + 5 logΔ + 10.0 log r

---------------------------------------------------------------------

軌道要素はM.P.E.C. 2019-L24に掲載されたものです。
星図はステラナビゲータ Ver.10 (アストロアーツ) で作成したものです。
光度グラフはComet for Windowsで作成したものです。

---------------------------------------------------------------------

Copyright(C) Seiichi Yoshida (comet@aerith.net). All rights reserved.